www.pogodaiklimat.ru

Погода и климат >> Архив погоды >> Новая Зеландия >> Окленд


ПОГОДА в Окленде

  • Прогноз погоды в Окленде
  • Монитор погоды в Окленде

АРХИВ ПОГОДЫ в Окленде

Время (UTC), дата Ветер
(напр.,м/с)
 
Видим.   Явления Облачность Т
(С)
Тd
(С)
f
(%)
Тe
(С)
Тes
(С)
Комфортность P
(гПа)
Po
(гПа)
Тmin
(С)
Tmax
(С)
R
(мм)
R24
(мм)
S
(см)
12 12.09 З 6 20 км н/о +12.7 +9.2 79 +10 +10 1018.7 1017.8 +15.6
15 12.09 ЮЗ 5 20 км н/о +12.9 +8.8 76 +11 +11 1018.1 1017.2
18 12.09 З 4 10 км н/о +12.3 +9.7 84 +10 +10 1017.9 1017.0
21 12.09 З 4 20 км н/о +14.0 +9.8 76 +13 +13 1018.6 1017.7
00 13.09 З 6 20 км н/о +15.8 +9.6 67 +15 +15 1017.8 1016.9 +11.2
03 13.09 З 5 20 км н/о +15.9 +10.9 72 +15 +15 1016.3 1015.4
06 13.09 СЗ 6 4000 м н/о +13.2 +11.5 89 +11 +11 1016.2 1015.3
09 13.09 СЗ 4 20 км н/о +12.9 +11.8 93 +11 +11 1017.5 1016.6
12 13.09 С 2 10 км н/о +13.0 +11.7 92 +12 +12 1016.7 1015.8 +17.2 0.4
15 13.09 СВ 2 10 км н/о +12.1 +11.4 95 +11 +11 1016.0 1015.1
18 13.09 СЗ 5 10 км н/о +12.3 +10.8 91 +10 +10 1016.0 1015.1
21 13.09 С 5 20 км н/о +14.0 +10.0 77 +12 +12 1015.7 1014.8
00 14.09 С 6 20 км н/о +17.0 +9.7 62 +16 +16 1013.9 1013.0 +11.3 0.4
03 14.09 СВ 9 20 км н/о +15.7 +9.9 68 +14 +14 1011.1 1010.2
06 14.09 С 10 4000 м н/о +13.2 +10.7 85 +10 +10 1009.5 1008.6
09 14.09 С 5 20 км н/о +12.8 +10.0 83 +11 +11 1009.5 1008.6
12 14.09 С 5 20 км н/о +11.2 +9.7 90 +9 +9 1009.7 1008.8 +17.8 0.2
15 14.09 З 6 20 км н/о +11.7 +8.1 79 +9 +9 1010.5 1009.6
18 14.09 СЗ 3 20 км н/о +9.7 +7.3 85 +8 +8 1012.0 1011.1
21 14.09 С 3 20 км н/о +13.5 +9.5 77 +12 +12 1013.3 1012.4
00 15.09 З 2 20 км н/о +13.9 +10.9 82 +14 +14 1013.0 1012.1 +8.1 1
03 15.09 Ю 3 20 км н/о +15.8 +10.1 69 +16 +16 1011.9 1011.0
06 15.09 ЮЗ 4 20 км н/о +13.9 +9.9 77 +12 +12 1012.1 1011.2
09 15.09 штиль 0 20 км н/о +11.8 +9.8 88 +11 +11 1013.1 1012.2
12 15.09 ЮВ 1 20 км н/о +11.0 +10.4 96 +11 +11 1014.3 1013.4 +16.1
15 15.09 СЗ 2 20 км н/о +11.7 +11.3 97 +10 +10 1014.1 1013.2
18 15.09 С 1 10 км н/о +11.2 +10.8 97 +11 +11 1015.5 1014.6 0.8
21 15.09 ЮЗ 7 20 км н/о +13.7 +8.7 72 +11 +11 1017.5 1016.6
00 16.09 ЮЗ 8 20 км н/о +15.8 +9.1 64 +14 +14 1018.2 1017.3 +9.9 0.8
03 16.09 ЮЗ 7 20 км н/о +15.0 +8.6 66 +13 +13 1017.8 1016.9
06 16.09 З 6 20 км н/о +13.8 +8.6 71 +12 +12 1019.0 1018.1
09 16.09 СЗ 3 20 км н/о +13.5 +7.9 69 +12 +12 1019.6 1018.7
12 16.09 З 5 20 км н/о +13.2 +8.4 73 +11 +11 1019.6 1018.7 +16.6
15 16.09 З 4 20 км н/о +13.4 +9.5 77 +12 +12 1018.9 1018.0
18 16.09 СЗ 2 20 км н/о +13.8 +9.5 75 +13 +13 1019.3 1018.4
21 16.09 З 7 20 км н/о +16.1 +11.5 74 +15 +15 1020.2 1019.3
00 17.09 З 9 20 км н/о +17.8 +12.4 71 +17 +17 1020.1 1019.2 +12.2
03 17.09 З 9 20 км н/о +16.0 +12.6 80 +14 +14 1020.4 1019.5
06 17.09 З 5 10 км н/о +15.2 +13.7 91 +14 +14 1021.7 1020.8 0.4
09 17.09 Ю 7 20 км н/о +12.8 +11.7 93 +10 +10 1024.0 1023.1
12 17.09 Ю 5 10 км н/о +12.7 +8.5 76 +10 +10 1025.6 1024.7 +19.3
15 17.09 Ю 5 10 км н/о +12.0 +6.9 71 +10 +10 1026.4 1025.5
18 17.09 Ю 3 10 км н/о +10.9 +7.0 77 +9 +9 1028.0 1027.1
21 17.09 Ю 4 20 км н/о +11.7 +5.9 68 +10 +10 1029.8 1028.9
00 18.09 ЮЗ 4 20 км н/о +14.5 +4.6 51 +14 +14 1029.8 1028.9 +10.2 0.4
03 18.09 ЮЗ 6 20 км н/о +15.5 +7.7 60 +14 +14 1029.2 1028.3
06 18.09 ЮЗ 4 20 км н/о +12.5 +7.0 69 +11 +11 1030.4 1029.5
09 18.09 Ю 3 20 км н/о +10.5 +7.1 79 +8 +8 1031.9 1031.0
12 18.09 С 2 4000 м н/о +10.8 +8.9 88 +9 +9 1032.2 1031.3 +15.9
15 18.09 ЮЗ 2 4000 м н/о +11.0 +10.5 97 +10 +10 1032.4 1031.5
18 18.09 Ю 3 20 км н/о +11.3 +10.7 96 +10 +10 1033.0 1032.1 0.6
21 18.09 ЮВ 3 20 км н/о +13.0 +11.4 90 +12 +12 1034.0 1033.1
00 19.09 ЮЗ 2 20 км н/о +14.6 +10.1 74 +14 +14 1033.3 1032.4 +10.0 0.6
03 19.09 ЮЗ 4 20 км н/о +14.7 +10.3 75 +14 +14 1032.2 1031.3
06 19.09 ЮЗ 4 20 км н/о +14.0 +10.6 80 +13 +13 1032.4 1031.5
09 19.09 ЮЗ 3 20 км н/о +12.4 +8.8 79 +11 +11 1033.4 1032.5

 

Местоположение метеостанции Окленд (Новая Зеландия): широта -37.00 долгота 174.80 высота над уровнем моря 7 м.

В архиве по умолчанию представлена погода в Окленде за последнюю неделю. Архивные данные за месяц целиком и за предыдущие месяцы, начиная с января 2011 года, Вы можете получить, выбрав интересующий диапазон дат из раскрывающегося списка и нажав кнопку "Ввод!".


*Определитесь, кто Вы:
робот инопланетянин человек

Внимание! Время в таблицах - всемирное. Для получения местного времени необходимо прибавить поправку, которая равна 12 ч.

Смотрите также архив погоды в соседних городах и на ближайших метеорологических станциях:

Погода на Мокохинау (Новая Зеландия) (125 км)
Погода в Тахароа (Новая Зеландия) (130 км)
Погода в Тауранге (Новая Зеландия) (144 км)
Погода на Пуперуа (Новая Зеландия) (222 км)
Погода на Таупо (Новая Зеландия) (222 км)
Погода в Нью-Плимуте (Новая Зеландия) (230 км)
Погода на Уэйауру (Новая Зеландия) (280 км)
Погода в Хикс-Бей (Новая Зеландия) (316 км)
Погода в Нейпире (Новая Зеландия) (326 км)
Погода в Гисборне (Новая Зеландия) (334 км)

Пояснения к столбцам:

Ветер - указаны скорость ветра в м/с - средняя за 10 мин, порывы в срок и между сроками (в фигурных скобках) и направление, откуда дует ветер: С - северный, СВ - северо-восточный, В - восточный, ЮВ - юго-восточный, Ю - южный, ЮЗ - юго-западный, З - западный, СЗ - северо-западный.
Видимость - горизонтальная дальность видимости в метрах или километрах. При видимости от 1 до 10 км при отсутствии осадков обычно наблюдается дымка, при ухудшении видимости до 1 км и менее - туман. В сухую погоду видимость может ухудшаться дымом, пылью или мглою.
Явления - указаны атмосферные явления, наблюдавшиеся в срок или в последний час перед сроком; фигурными скобками обозначены явления, наблюдавшиеся между сроками (за 1-3 часа до срока); квадратными скобками обозначены град или гололедные отложения с указанием их диаметра в мм.
Облачность - указаны через наклонную черту общая и нижняя облачность в баллах и высота нижней границы облаков в метрах; квадратными скобками обозначены формы облаков: Ci - перистые, Cs - перисто-слоистые, Cc - перисто-кучевые, Ac - высококучевые, As - высокослоистые, Sc - слоисто-кучевые, Ns - слоисто-дождевые, Cu - кучевые, Cb - кучево-дождевые. Подробнее классификацию облаков см. в Атласе облаков (PDF).
T - Температура воздуха - температура, измеренная на высоте 2 м над землей.
Td - Температура точки росы - температура, при понижении до которой содержащийся в воздухе водяной пар достигнет насыщения.
f - Относительная влажность воздуха - влажноcть воздуха, измеренная на высоте 2 м над землей.
Te - Эффективная температура - температура, которую ощущает одетый по сезону человек в тени. Характеристика душности погоды. При расчете учитывается влияние влажности воздуха и скорости ветра на теплоощущения человека.
Tes - Эффективная температура на солнце - температура, которую ощущает человек, с поправкой на солнечный нагрев. Характеристика знойности погоды. Зависит от высоты солнца над горизонтом, облачности и скорости ветра. Ночью, в пасмурную погоду, а также при ветре 12 м/с и более поправка равна нулю.
P - Атмосферное давление - приведенное к уровню моря атмосферное давление.
Po - Атмосферное давление - измеренное на уровне метеостанции атмосферное давление.
Tmin - Минимальная температура - минимум температуры воздуха на высоте 2 м над землей.
Tmax - Максимальная температура - максимум температуры воздуха на высоте 2 м над землей.
R - Количество осадков - Количество выпавших осадков за период времени, мм. При наведении курсора мыши на число - период времени, за который выпало указанное количество осадков.
R24 - Количество осадков - Количество выпавших осадков за 24 часа, мм.
S - Снежный покров - Высота снежного покрова, см. При наведении курсора мыши на число - состояние снежного покрова и степень покрытия местности в баллах.